"Pseudo-MPEC" for CC4W8X2

Created 2024 Nov 3 18:31:08 UT using Find_Orb

Click here for an explanation of pseudo-MPECs

 
 Astrometry: 
     CC4W8X2*1C2024 10 24.22495501 14 19.046-00 25 51.13   ~AO6H 21.29GVNEOCPG96
     CC4W8X2 1C2024 10 24.23009001 14 17.484-00 27 16.02   ~AO6H 20.83GVNEOCPG96
     CC4W8X2 1C2024 10 24.23523201 14 15.904-00 28 40.76   ~AO6H 21.37GVNEOCPG96
     CC4W8X2 1C2024 10 24.24037801 14 14.348-00 30 06.66   ~AO6H 21.74GVNEOCPG96
     CC4W8X2 KC2024 10 24.35757701 13 38.104-01 03 35.78   ~AO9H 20.85GVNEOCPI52
     CC4W8X2 KC2024 10 24.36161901 13 36.829-01 04 45.84   ~AO9H 20.97GVNEOCPI52
     CC4W8X2 KC2024 10 24.36565901 13 35.551-01 05 58.88   ~AO9H 21.01GVNEOCPI52
     CC4W8X2 KC2024 10 25.20301301 09 43.574-06 37 01.88   ~AP5V 20.79GVNEOCPI52
     CC4W8X2 KC2024 10 25.20445401 09 42.815-06 37 47.42   ~AP5V 20.37GVNEOCPI52
     CC4W8X2 KC2024 10 25.20589601 09 42.059-06 38 32.42   ~AP5V 20.54GVNEOCPI52

Station data:
(G96) Mt. Lemmon Survey  (N32.442729 W110.788720)  US/Arizona.  Observer E.
   J. Christensen. 1.5-m reflector + 10K CCD.
(I52) Steward Observatory, Mt. Lemmon Station  (N32.442570 W110.788920)
   US/Arizona.  Observers T. A. Pruyne, B. M. Africano, E. J. Christensen, G.
   A. Farneth, D. C. Fuls, A. R. Gibbs, A. D. Grauer, H. Gröller, J. A.
   Johnson, R. A. Kowalski, S. M. Larson, G. J. Leonard, D. Rankin, R. L.
   Seaman, F. C. Shelly, K. W. Wierzchoś. 1.0-m prime focus + CCD.

Orbital elements:  CC4W8X2
   Perihelion 2024 Dec 10.99262 +/- 0.0447 TT = 23:49:22 (JD 2460655.49262)
Epoch 2024 Oct 25.0 TT = JDT 2460608.5   Earth MOID: 0.0073   Ve: 0.0419
M 343.96327240 +/- 0.11             Ma: 0.0135                   AutoNEOCP
n   0.34126053 +/- 0.00217          Peri.  261.63244 +/- 0.0040
a   2.02805005 +/- 0.00858          Node   206.00061 +/- 0.006
e   0.6488092 +/- 0.00171           Incl.    3.07801 +/- 0.009
P   2.88814                H 27.98  G  0.15   U  8.6
q 0.71223239 +/- 0.000459    Q 3.34386771 +/- 0.0176      (J2000 ecliptic)
From 10 observations 2024 Oct. 24-25 (23.5 hr); mean residual 0".43
Residuals in arcseconds: 
241024 G96  .65+  .47+    241024 I52  .47+  .72-    241025 I52  .02-  .21-    
241024 G96  .17+  .03+    241024 I52  .07+  .97+    241025 I52  .09-  .34+    
241024 G96  .42-  .10+    241024 I52  .43-  .18-    
241024 G96  .51-  .67-    241025 I52  .12+  .14-    

Ephemerides (geocentric):
Date (UTC) HH   RA             Dec           delta  r     elong  mag " sig PA
---- --------  ------------   ------------  ------ ------ -----  --- --------
2024 11 03 19  13 32 03.544   -21 33 21.31  .07212 .92291  16.5 33?? 15.2 174
2024 11 03 20  13 32 01.898   -21 31 01.94  .07253 .92252  16.5 33?? 15.1 174
2024 11 03 21  13 32 00.277   -21 28 44.10  .07293 .92213  16.5 33?? 15.1 174
2024 11 03 22  13 31 58.681   -21 26 27.75  .07334 .92175  16.5 33?? 15.1 174
2024 11 03 23  13 31 57.111   -21 24 12.88  .07375 .92136  16.6 33?? 15.0 174
2024 11 04 00  13 31 55.565   -21 21 59.45  .07416 .92097  16.6 33?? 15.0 174
2024 11 04 01  13 31 54.043   -21 19 47.44  .07456 .92058  16.6 33?? 15.0 174
2024 11 04 02  13 31 52.546   -21 17 36.83  .07497 .92019  16.6 33?? 14.9 174
2024 11 04 03  13 31 51.072   -21 15 27.61  .07538 .91980  16.7 33?? 14.9 174
2024 11 04 04  13 31 49.621   -21 13 19.74  .07579 .91942  16.7 33?? 14.9 174
2024 11 04 05  13 31 48.193   -21 11 13.20  .07620 .91903  16.7 33?? 14.8 174
2024 11 04 06  13 31 46.788   -21 09 07.98  .07660 .91864  16.7 33?? 14.8 174
2024 11 04 07  13 31 45.405   -21 07 04.06  .07701 .91825  16.8 33?? 14.8 174
2024 11 04 08  13 31 44.044   -21 05 01.41  .07742 .91787  16.8 33?? 14.7 174
2024 11 04 09  13 31 42.705   -21 03 00.01  .07783 .91748  16.8 33?? 14.7 174
2024 11 04 10  13 31 41.387   -21 00 59.85  .07824 .91709  16.9 33?? 14.7 174
2024 11 04 11  13 31 40.091   -20 59 00.90  .07865 .91671  16.9 33?? 14.6 174
2024 11 04 12  13 31 38.815   -20 57 03.16  .07905 .91632  16.9 33?? 14.6 174
2024 11 04 13  13 31 37.560   -20 55 06.59  .07946 .91593  16.9 33?? 14.6 174
2024 11 04 14  13 31 36.325   -20 53 11.19  .07987 .91555  17.0 33?? 14.5 174
2024 11 04 15  13 31 35.110   -20 51 16.93  .08028 .91516  17.0 33?? 14.5 174
2024 11 04 16  13 31 33.915   -20 49 23.80  .08069 .91478  17.0 33?? 14.5 174
2024 11 04 17  13 31 32.740   -20 47 31.78  .08110 .91439  17.1 33?? 14.5 174
2024 11 04 18  13 31 31.583   -20 45 40.86  .08151 .91400  17.1 33?? 14.4 174
2024 11 04 19  13 31 30.446   -20 43 51.01  .08192 .91362  17.1 33?? 14.4 174
2024 11 04 20  13 31 29.328   -20 42 02.23  .08233 .91323  17.1 33?? 14.4 174
2024 11 04 21  13 31 28.228   -20 40 14.50  .08274 .91285  17.2 33?? 14.3 174
2024 11 04 22  13 31 27.147   -20 38 27.80  .08315 .91247  17.2 33?? 14.3 174
2024 11 04 23  13 31 26.083   -20 36 42.11  .08356 .91208  17.2 33?? 14.3 174
2024 11 05 00  13 31 25.038   -20 34 57.44  .08397 .91170  17.3 33?? 14.3 174
2024 11 05 01  13 31 24.010   -20 33 13.75  .08438 .91131  17.3 33?? 14.2 174
2024 11 05 02  13 31 23.000   -20 31 31.03  .08479 .91093  17.3 33?? 14.2 174
2024 11 05 03  13 31 22.007   -20 29 49.28  .08520 .91054  17.4 33?? 14.2 174
2024 11 05 04  13 31 21.031   -20 28 08.48  .08561 .91016  17.4 33?? 14.2 174
2024 11 05 05  13 31 20.073   -20 26 28.61  .08602 .90978  17.4 33?? 14.1 174
2024 11 05 06  13 31 19.130   -20 24 49.66  .08643 .90939  17.4 33?? 14.1 174
2024 11 05 07  13 31 18.205   -20 23 11.63  .08684 .90901  17.5 33?? 14.1 174
2024 11 05 08  13 31 17.296   -20 21 34.49  .08725 .90863  17.5 33?? 14.1 174
2024 11 05 09  13 31 16.402   -20 19 58.23  .08766 .90825  17.5 33?? 14.0 174
2024 11 05 10  13 31 15.525   -20 18 22.85  .08807 .90786  17.6 33?? 14.0 174
2024 11 05 11  13 31 14.664   -20 16 48.33  .08848 .90748  17.6 33?? 14.0 174
2024 11 05 12  13 31 13.818   -20 15 14.65  .08890 .90710  17.6 33?? 14.0 174
2024 11 05 13  13 31 12.988   -20 13 41.82  .08931 .90672  17.7 33?? 13.9 174
2024 11 05 14  13 31 12.173   -20 12 09.81  .08972 .90633  17.7 33?? 13.9 174
2024 11 05 15  13 31 11.374   -20 10 38.62  .09013 .90595  17.7 33?? 13.9 174
2024 11 05 16  13 31 10.589   -20 09 08.23  .09054 .90557  17.8 33?? 13.9 174
2024 11 05 17  13 31 09.819   -20 07 38.64  .09095 .90519  17.8 33?? 13.8 174
2024 11 05 18  13 31 09.064   -20 06 09.83  .09136 .90481  17.8 33?? 13.8 174